Regional Weather Roundup
Issued by NWS

Home | Current Version | Previous Version | Graphics & Text | Print | Product List | Glossary On
Versions: 1 2 3 4 5 6 7 8 9 10 11 12 13 14 15 16 17 18 19 20 21 22 23 24 25 26 27 28 29 30 31 32 33 34 35 36 37 38 39 40 41 42 43 44 45 46 47 48 49 50
000
ASUS45 KABQ 210501
RWRNM
WEATHER ROUNDUP FOR NEW MEXICO
NATIONAL WEATHER SERVICE ALBUQUERQUE NM
1100 PM MDT MON OCT 20 2014

NOTE: "FAIR" MEANS FEW OR NO CLOUDS BELOW 12,000 FEET AGL WITH NO
       SIGNIFICANT WEATHER OR OBSTRUCTIONS TO VISION.

      THIS PRODUCT IS RELEASED AS TWO VERSIONS.  ONE VERSION NEAR
      THE TOP OF THE HOUR CONTAINING PRELIMINARY DATA FROM ALBUQUERQUE
      AND OTHER STATIONS.  A FINAL VERSION WITH ADDITIONAL DATA IS
      ISSUED ABOUT 10 MINUTES AFTER THE HOUR.

NMZ501-503-504-510>518-210600-
NORTHWEST PLATEAU/NORTHCENTRAL MOUNTAINS

CITY           SKY/WX    TMP DP  RH WIND       PRES   REMARKS
FARMINGTON     PTCLDY    54  45  71 E9        30.13S
LOS ALAMOS     MOCLDY    52  41  65 SW5       30.27S
SANTA FE       MOCLDY    51  47  86 CALM      30.23S
TAOS           PTCLDY    52  36  54 SE8       30.25F
ANGEL FIRE     FAIR      38  34  85 CALM      30.33F

$$
NMZ402-403-502-505>509-210600-
WESTCENTRAL MOUNTAINS/SOUTHWEST MOUNTAINS

CITY           SKY/WX    TMP DP  RH WIND       PRES   REMARKS
GALLUP         CLOUDY    49  42  77 E3        30.19S
SILVER CITY    CLOUDY    54  50  87 CALM      30.17F

$$
NMZ407-409-411-412-210600-
SOUTHERN DESERTS

CITY           SKY/WX    TMP DP  RH WIND       PRES   REMARKS
LORDSBURG      FAIR      54  50  87 MISG      30.08F
DEMING         CLOUDY    56  54  93 NE10      30.10S
LAS CRUCES     CLOUDY    57  55  93 N5        30.12S
HOLLOMAN AFB   MOCLDY    60  55  85 CALM      30.09F
T OR C         CLOUDY    58  53  84 CALM      30.14S

$$
NMZ519>523-210600-
CENTRAL VALLEYS/CENTRAL HIGHLANDS

CITY           SKY/WX    TMP DP  RH WIND       PRES   REMARKS
ALBUQUERQUE    CLOUDY    59  46  62 NE6       30.18S
DOUBLE EAGLE   MOCLDY    51  49  90 CALM      30.21S
MORIARTY ARPT  FAIR      47  44  92 NE5       30.24F
CLINES CORNERS PTCLDY    48  45  89 SE10      30.25F
BELEN          NOT AVBL
SOCORRO        CLOUDY    56  52  88 NW8       30.16F

$$
NMZ524>526-539-540-210600-
SOUTHCENTRAL MOUNTAINS

CITY           SKY/WX    TMP DP  RH WIND       PRES   REMARKS
RUIDOSO        NOT AVBL

$$
NMZ527>531-210600-
NORTHEAST HIGHLANDS/NORTHEAST PLAINS

CITY           SKY/WX    TMP DP  RH WIND       PRES   REMARKS
LAS VEGAS      MOCLDY    48  44  86 S13       30.27S
RATON          CLEAR     46  38  73 NW3       30.23F
CLAYTON        CLEAR     51  44  77 CALM      30.17F

$$
NMZ532>537-210600-
EASTCENTRAL PLAINS

CITY           SKY/WX    TMP DP  RH WIND       PRES   REMARKS
TUCUMCARI      PTCLDY    59  50  72 W8        30.12F
CANNON AFB     PTCLDY    55  52  89 N6        30.15F
CLOVIS AIRPORT PTCLDY    55  50  82 NW3       30.18S

$$
NMZ028-029-538-210600-
SOUTHEAST PLAINS

CITY           SKY/WX    TMP DP  RH WIND       PRES   REMARKS
ROSWELL        LGT RAIN  59  56  89 N3        30.13S
CARLSBAD       CLOUDY    62  60  93 N5        30.10S
HOBBS          CLOUDY    59  59 100 CALM      30.13S


$$



USA.gov is the U.S. government's official web portal to all federal, state and local government web resources and services.